Fort Knox, KY

9:02 AM EST on December 07, 2019 (GMT -0500)
Godman Army Air Field

Weather History for KFTK - October, 2019

Change the Weather History Date:

Thursday, October 17, 2019

  Actual Average Record
Temperature  
Mean Temperature 47 °F -  
Max Temperature 59 °F 65 °F 84 °F (2016)
Min Temperature 35 °F 44 °F 31 °F (2015)
Degree Days  
Heating Degree Days 18    
Moisture  
Dew Point 37 °F    
Average Humidity 77    
Maximum Humidity 100    
Minimum Humidity 40    
Precipitation  
Precipitation 0.00 in - - ()
Sea Level Pressure  
Sea Level Pressure 30.06 in    
Wind  
Wind Speed 4 mph (West)    
Max Wind Speed 9 mph    
Max Gust Speed -    
Visibility 10 miles    
Events      
Averages and records for this station are not official NWS values.
T = Trace of Precipitation, MM = Missing Value Source: NWS Daily Summary

Daily Weather History Graph

Daily Weather History Graph

Search for Another Location

Airport or City:

Astronomy

Oct. 17, 2019 Rise Set
Actual Time 7:54 AM EDT 7:03 PM EDT
Civil Twilight 7:27 AM EDT 7:30 PM EDT
Nautical Twilight 6:56 AM EDT 8:00 PM EDT
Astronomical Twilight 6:26 AM EDT 8:31 PM EDT
Moon 9:38 PM EDT (10/17) 11:22 AM EDT (10/17)
Length of Visible Light 12h 02m
Length of Day
11h 09m
Waning Gibbous, 87% of the Moon is Illuminated
Oct 17
Waning Gibbous
Oct 21
Last Quarter
Oct 27
New
Nov 4
First Quarter
Nov 12
Full

Hourly Weather History & Observations

Time (EDT) Temp. Windchill Dew Point Humidity Pressure Visibility Wind Dir Wind Speed Gust Speed Precip Events Conditions
12:50 AM 37.4 °F 34.9 °F 37.4 °F 100% 30.05 in 10.0 mi West 3.5 mph - N/A   Clear
12:56 AM 38.1 °F 35.7 °F 37.9 °F 99% 30.06 in 10.0 mi West 3.5 mph - N/A   Clear
1:33 AM 37.4 °F 32.8 °F 37.4 °F 100% 30.04 in 10.0 mi West 5.8 mph - N/A   Clear
1:56 AM 38.7 °F 34.3 °F 37.6 °F 96% 30.04 in 10.0 mi WNW 5.8 mph - N/A   Clear
2:43 AM 39.2 °F 35.9 °F 37.4 °F 93% 30.06 in 10.0 mi West 4.6 mph - N/A   Clear
2:56 AM 38.3 °F 35.9 °F 36.7 °F 94% 30.06 in 10.0 mi WSW 3.5 mph - N/A   Clear
3:56 AM 37.9 °F 33.5 °F 37.4 °F 98% 30.06 in 10.0 mi West 5.8 mph - N/A   Clear
4:56 AM 36.3 °F 31.6 °F 36.1 °F 99% 30.05 in 10.0 mi West 5.8 mph - N/A   Clear
5:56 AM 35.8 °F 31.9 °F 35.6 °F 99% 30.06 in 10.0 mi West 4.6 mph - N/A   Clear
6:56 AM 35.8 °F 30.9 °F 35.6 °F 99% 30.06 in 10.0 mi West 5.8 mph - N/A   Clear
7:56 AM 36.1 °F - 36.0 °F 99% 30.06 in 10.0 mi Calm Calm - N/A   Clear
8:31 AM 35.6 °F - 35.6 °F 100% 30.08 in 10.0 mi Calm Calm - N/A   Clear
8:56 AM 39.6 °F - 39.4 °F 99% 30.08 in 10.0 mi Calm Calm - N/A   Clear
9:46 AM 42.8 °F 39.3 °F 39.2 °F 87% 30.10 in 10.0 mi West 5.8 mph - N/A   Clear
9:56 AM 44.4 °F 41.2 °F 40.8 °F 87% 30.10 in 10.0 mi West 5.8 mph - N/A   Clear
10:56 AM 48.2 °F - 39.9 °F 73% 30.11 in 10.0 mi West 4.6 mph - N/A   Overcast
11:56 AM 52.5 °F - 37.2 °F 56% 30.11 in 10.0 mi WNW 6.9 mph - N/A   Clear
12:30 PM 51.8 °F - 35.6 °F 54% 30.09 in 10.0 mi North 5.8 mph - N/A   Partly Cloudy
12:56 PM 54.5 °F - 35.8 °F 49% 30.09 in 10.0 mi SW 5.8 mph - N/A   Partly Cloudy
1:21 PM 57.2 °F - 35.6 °F 44% 30.06 in 10.0 mi WSW 6.9 mph - N/A   Partly Cloudy
1:56 PM 57.0 °F - 35.2 °F 44% 30.06 in 10.0 mi WSW 9.2 mph - N/A   Scattered Clouds
2:34 PM 57.2 °F - 35.6 °F 44% 30.04 in 10.0 mi Calm Calm - N/A   Clear
2:56 PM 57.0 °F - 34.7 °F 43% 30.05 in 10.0 mi Calm Calm - N/A   Partly Cloudy
3:44 PM 59.0 °F - 35.6 °F 42% 30.03 in 10.0 mi West 8.1 mph - N/A   Clear
3:56 PM 59.0 °F - 36.0 °F 42% 30.04 in 10.0 mi West 9.2 mph - N/A   Clear
4:56 PM 59.0 °F - 34.7 °F 40% 30.03 in 10.0 mi West 4.6 mph - N/A   Clear
5:56 PM 57.9 °F - 36.1 °F 44% 30.02 in 10.0 mi WSW 6.9 mph - N/A   Clear
6:56 PM 53.6 °F - 37.4 °F 54% 30.02 in 10.0 mi West 3.5 mph - N/A   Clear
7:56 PM 44.8 °F - 39.0 °F 80% 30.03 in 10.0 mi Calm Calm - N/A   Clear
8:23 PM 44.6 °F - 39.2 °F 81% 30.05 in 10.0 mi Calm Calm - N/A   Clear
8:56 PM 42.3 °F - 39.7 °F 91% 30.05 in 10.0 mi Calm Calm - N/A   Clear
9:56 PM 41.5 °F - 39.0 °F 91% 30.06 in 10.0 mi Calm Calm - N/A   Clear
10:56 PM 40.3 °F - 38.7 °F 94% 30.07 in 10.0 mi Calm Calm - N/A   Clear
11:56 PM 39.0 °F - 38.8 °F 99% 30.06 in 10.0 mi Calm Calm - N/A   Clear